FALCON 9 R/B, 47241

Orbit data source: Space-Track

FALCON 9 R/B, 47241 is space debris in HEO originally from a launch on Sun, 13 Dec 2020 UTC launched from the Air Force Eastern Test Range (AFETR). Debris objects in space refer to the collection of defunct objects orbiting the Earth. Examples of debris include non-operational satellites, rocket bodies, and fragments generated from explosions, collisions, or faulty payload assembly.

Loading next visibility...
Identifier
47241, 2020-096B
Orbit
HEO
Last TLE update
15 hours ago
Origin
Manufacturer
SpaceX
Mission
Spacecraft
Bus & Motor
F9ST2, Unknown motor
Mass
~4,000 kg wet, ~4,000 kg dry
Launch date (UTC)
2020-12-13 (4 years ago)
Launch vehicle
Unknown
Launch site
Air Force Eastern Test Range (AFETR)
Object type
Payload
Rocket body
Debris
Shape & HBR
Cyl, 15.53 m
Radar Cross Section
39.980 m², Large (>1 m²)

Expand to show TLE details & history

TLE from 15 hours ago
0 FALCON 9 R/B
1 47241U 20096B   25129.16799347  .00067804  00000-0  15460-2 0  9993
2 47241  26.9946 332.0311 4616661  34.5969 348.2632  6.40613902 79774
Epoch: 2025-05-09T04:01Z
Definitive object data (Epoch: 2025-05-09T04:01:54.635Z)
Latitude
0.00001°
Longitude
44.32545°
Altitude
602.03 km
Speed
9.037 km/s
True Right ascension
22h 08m 07s
True Declination
0° 00' 00"
Sunlit
Object was in daylight at TLE epoch
Visualization TLE readout
Latitude
-5.12935°
Longitude
33.32119°
Altitude
962.029 km
Speed
8.722 km/s
Apparent Right ascension
19h 04m 09s
Apparent Declination
-28° 59' 24"
Sunlit
Object is in daylight
Visualization observer readout
Local Sidereal Time
03:08:48
Azimuth
263.801° W
Elevation
-41.157°
Doppler factor
1
Orbital elements
Apogee altitude
11,527.054 km
Perigee altitude
216.373 km
Semi-major axis
12,249.851 km
Eccentricity
0.4616661
Inclination
26.9946°
RAAN
332.0311°
Arg. of periapsis
34.5969°
True anomaly
325.44379°
Mean anomaly
348.2632°
Eccentric anomaly
338.62044°
Mean motion
1.60084 °/min
BSTAR
0.001546
Orbital period
224.88 mins
Loading maneuver chart data...
Loading SW <> Apogee altitude chart data...
Loading historical data...
Loading historical data...
Loading historical data...
Loading historical data...
Loading historical data...
Loading historical data...
Loading historical data...
Other satellites on launch #96 in the year 2020 (2020-12-13 UTC)

FALCON 9 R/B Visibility forecast

Observer location: undefined°, undefined°

Span
Click to sort rows by Start time (UTC) header in descending order
Start Az.
Max El. time (UTC)
Max El. Az.
Max El.
End time (UTC)
End Az.
13 mins2025-05-09 19:16:54.701Z203.032° SW2025-05-09 19:19:54.701Z155.952° SSE24.152°2025-05-09 19:29:54.701Z105.6° ESE
62 mins2025-05-09 23:10:54.701Z246.742° WSW2025-05-09 23:21:54.701Z188.177° SSW33.096°2025-05-10 00:12:54.701Z134.525° SE
85 mins2025-05-10 03:18:54.701Z244.72° WSW2025-05-10 03:46:54.701Z213.114° SW18.888°2025-05-10 04:43:54.701Z180.601° SSW
|